Weather History for Ames, IA

Change the Weather History Date:

Friday, July 19, 2013

  Actual Average Record
Temperature  
Mean Temperature 82 °F 74 °F  
Max Temperature 95 °F 84 °F 96 °F (2011)
Min Temperature 68 °F 63 °F 55 °F (2000)
Degree Days  
Heating Degree Days 0 0  
Month to date heating degree days 0 0  
Since 1 June heating degree days 42 24  
Since 1 July heating degree days 0 0  
Cooling Degree Days 17 9  
Month to date cooling degree days 209 164  
Year to date cooling degree days 451 387  
Since 1 June cooling degree days 396 338  
Growing Degree Days 33 (Base 50)    
Moisture  
Dew Point 64 °F    
Average Humidity 55    
Maximum Humidity 74    
Minimum Humidity 36    
Precipitation  
Precipitation 0.00 in 0.15 in 1.49 in (2008)
Month to date precipitation 0.11 3.14  
Sea Level Pressure  
Sea Level Pressure 29.85 in    
Wind  
Wind Speed 9 mph (West)    
Max Wind Speed 18 mph    
Max Gust Speed 22 mph    
Visibility 10 miles    
Events      
T = Trace of Precipitation, MM = Missing Value Source: NWS Daily Summary

Daily Weather History Graph

Daily Weather History Graph

Search for Another Location

Airport:

Trip Planner

Search our weather history database for the weather conditions in past years. The results will help you decide how hot, cold, wet, or windy it might be!

Date:

Astronomy

Jul. 19, 2013 Rise Set
Actual Time 5:55 AM CDT 8:45 PM CDT
Civil Twilight 5:22 AM CDT 9:18 PM CDT
Nautical Twilight 4:41 AM CDT 9:59 PM CDT
Astronomical Twilight 3:53 AM CDT 10:47 PM CDT
Moon 5:48 PM CDT (7/19) 2:37 AM CDT (7/19)
Length of Visible Light 15h 55m
Length of Day
14h 49m
Waxing Gibbous, 87% of the Moon is Illuminated
Jul 19
Waxing Gibbous
Jul 22
Full
Jul 29
Last Quarter
Aug 6
New
Aug 14
First Quarter

Hourly Weather History & Observations

Time (CDT) Temp. Heat Index Dew Point Humidity Pressure Visibility Wind Dir Wind Speed Gust Speed Precip Events Conditions
12:53 AM 80.1 °F 82.1 °F 66.0 °F 62% 29.89 in 10.0 mi SSW 9.2 mph - N/A   Clear
1:53 AM 78.1 °F - 66.0 °F 66% 29.88 in 10.0 mi SSW 8.1 mph - N/A   Clear
2:53 AM 75.9 °F - 66.0 °F 71% 29.87 in 10.0 mi SW 8.1 mph - N/A   Clear
3:53 AM 75.9 °F - 66.0 °F 71% 29.85 in 10.0 mi SSW 9.2 mph - N/A   Mostly Cloudy
4:53 AM 75.9 °F - 66.0 °F 71% 29.83 in 10.0 mi SW 11.5 mph - N/A   Mostly Cloudy
5:53 AM 75.9 °F - 64.9 °F 69% 29.85 in 10.0 mi SW 10.4 mph - N/A   Scattered Clouds
6:53 AM 77.0 °F - 64.9 °F 66% 29.85 in 10.0 mi WSW 12.7 mph - N/A   Scattered Clouds
7:53 AM 79.0 °F - 64.9 °F 62% 29.85 in 10.0 mi West 11.5 mph - N/A   Scattered Clouds
8:53 AM 80.1 °F 82.3 °F 66.9 °F 64% 29.88 in 10.0 mi WSW 4.6 mph - N/A   Mostly Cloudy
9:53 AM 84.0 °F 86.5 °F 66.9 °F 56% 29.88 in 10.0 mi WSW 13.8 mph 20.7 mph N/A   Clear
10:53 AM 86.0 °F 88.8 °F 66.9 °F 53% 29.86 in 10.0 mi West 15.0 mph - N/A   Partly Cloudy
11:53 AM 88.0 °F 91.4 °F 68.0 °F 51% 29.86 in 10.0 mi WNW 10.4 mph - N/A   Scattered Clouds
12:53 PM 90.0 °F 94.5 °F 69.1 °F 50% 29.85 in 10.0 mi West 9.2 mph 16.1 mph N/A   Clear
1:53 PM 91.9 °F 96.9 °F 69.1 °F 47% 29.83 in 10.0 mi WSW 9.2 mph - N/A   Partly Cloudy
2:53 PM 93.0 °F 93.8 °F 62.1 °F 36% 29.83 in 10.0 mi NNW 10.4 mph - N/A   Partly Cloudy
3:53 PM 93.9 °F 94.8 °F 62.1 °F 35% 29.82 in 10.0 mi Variable 5.8 mph - N/A   Clear
4:53 PM 93.0 °F 94.2 °F 63.0 °F 37% 29.81 in 10.0 mi West 10.4 mph - N/A   Partly Cloudy
5:53 PM 91.9 °F 91.5 °F 60.1 °F 34% 29.81 in 10.0 mi NNW 15.0 mph - N/A   Clear
6:53 PM 89.1 °F 89.3 °F 62.1 °F 40% 29.81 in 10.0 mi North 13.8 mph - N/A   Clear
7:35 PM 87.8 °F 87.1 °F 59.0 °F 38% 29.86 in 10.0 mi North 13.8 mph - N/A   Partly Cloudy
7:53 PM 86.0 °F 85.0 °F 57.9 °F 38% 29.83 in 10.0 mi North 10.4 mph - N/A   Clear
8:53 PM 81.0 °F 81.7 °F 61.0 °F 50% 29.84 in 10.0 mi North 9.2 mph - N/A   Clear
9:53 PM 75.9 °F - 61.0 °F 60% 29.86 in 10.0 mi North 5.8 mph - N/A   Clear
10:53 PM 73.0 °F - 60.1 °F 64% 29.88 in 10.0 mi NNE 4.6 mph - N/A   Clear
11:53 PM 69.1 °F - 59.0 °F 70% 29.91 in 10.0 mi North 3.5 mph - N/A   Clear